Weather reports worldwide

Advertisment
St.Bees Head, United Kingdom (3210): temperature & dewpoint: 04.04.2020 19:00:00 - 10.04.2020 19:00:00 (BST)St.Bees Head, United Kingdom (3210): temperature -20cm & temperature -100cm: 04.04.2020 19:00:00 - 10.04.2020 19:00:00 (BST)St.Bees Head, United Kingdom (3210): wind speed & gusts: 04.04.2020 19:00:00 - 10.04.2020 19:00:00 (BST)St.Bees Head, United Kingdom (3210): wind direction: 04.04.2020 19:00:00 - 10.04.2020 19:00:00 (BST)St.Bees Head, United Kingdom (3210): reduced air pressure: 04.04.2020 19:00:00 - 10.04.2020 19:00:00 (BST)St.Bees Head, United Kingdom (3210): visibility: 04.04.2020 19:00:00 - 10.04.2020 19:00:00 (BST)St.Bees Head, United Kingdom (3210): precipitation: 04.04.2020 19:00:00 - 10.04.2020 19:00:00 (BST)
Date & Time tt [°C] td [°C] tt -20cm [°C] tt -100cm [°C] ff [km/h] ff [kn] fx [km/h] fx [kn] dd ppp [hPa] vv [km] rr [mm]
10.04.2020 19:00:00 - - - - - - - - - - - -
10.04.2020 18:00:00 15,3 9,6 - - 18 10 - - S 1021,3 9 0,0
10.04.2020 17:00:00 14,9 8,9 - - 13 7 - - S 1021,5 10 0,0
10.04.2020 16:00:00 15,3 8,6 - - 15 8 - - SSE 1021,7 12 0,0
10.04.2020 15:00:00 15,0 9,4 - - 9 5 - - WNW 1022,3 12 0,0
10.04.2020 14:00:00 13,9 9,3 - - 9 5 - - NNW 1022,7 12 0,0
10.04.2020 13:00:00 13,5 8,0 - - 9 5 - - NNW 1023,1 14 0,0
10.04.2020 12:00:00 12,7 7,8 - - 11 6 - - N 1023,7 12 0,0
10.04.2020 11:00:00 12,0 7,5 - - 8 4 - - NNW 1024,1 12 0,0
10.04.2020 10:00:00 12,3 7,9 9,9 8,5 4 2 - - ENE 1024,2 12 0,0
10.04.2020 09:00:00 11,2 7,4 - - 8 4 - - SE 1024,2 12 0,0
10.04.2020 08:00:00 10,5 7,3 - - 11 6 - - S 1024,4 12 0,0
10.04.2020 07:00:00 9,3 6,1 - - 11 6 - - S 1024,3 12 0,0
10.04.2020 06:00:00 9,1 6,3 - - 8 4 - - SSW 1024,3 13 0,0
10.04.2020 05:00:00 10,1 6,5 - - 13 7 - - SSE 1024,2 13 0,0
10.04.2020 04:00:00 10,6 6,6 - - 8 4 - - S 1024,5 13 0,0
10.04.2020 03:00:00 10,2 6,7 - - 13 7 - - S 1024,5 13 0,0
10.04.2020 02:00:00 10,8 7,1 - - 11 6 - - SSE 1024,7 14 0,0
10.04.2020 01:00:00 11,5 7,5 - - 4 2 - - ESE 1025,0 16 0,0
10.04.2020 00:00:00 12,1 7,6 - - 5 3 - - ESE 1025,2 17 0,0
09.04.2020 23:00:00 12,3 8,1 - - 5 3 - - ESE 1025,0 18 0,0
09.04.2020 22:00:00 11,1 7,8 - - 8 4 - - E 1025,2 17 0,0
09.04.2020 21:00:00 11,5 8,0 - - 8 4 - - E 1025,1 22 0,0
09.04.2020 20:00:00 13,0 8,1 - - 13 7 - - SSE 1025,0 28 0,0
09.04.2020 19:00:00 13,8 7,7 - - 2 1 - - WNW 1024,8 30 0,0
09.04.2020 18:00:00 14,2 8,1 - - 9 5 - - W 1024,8 30 0,0
09.04.2020 17:00:00 15,6 8,3 - - 9 5 - - WSW 1024,8 30 0,0
09.04.2020 16:00:00 15,7 9,1 - - 8 4 - - N 1025,0 35 0,0
09.04.2020 15:00:00 13,4 8,2 - - 11 6 - - N 1025,7 30 0,0
09.04.2020 14:00:00 12,4 8,0 - - 16 9 - - N 1026,1 29 0,0
09.04.2020 13:00:00 13,2 8,0 - - 13 7 - - N 1026,3 30 0,0
09.04.2020 12:00:00 13,1 6,9 - - 9 5 - - NNW 1026,5 29 0,0
09.04.2020 11:00:00 13,0 5,8 - - 5 3 - - NW 1026,5 30 0,0
09.04.2020 10:00:00 14,0 6,9 9,4 8,4 2 1 - - SSE 1026,4 30 0,0
09.04.2020 09:00:00 11,1 5,6 - - 4 2 - - SW 1026,2 30 0,0
09.04.2020 08:00:00 9,3 5,8 - - 4 2 - - E 1025,8 35 0,0
09.04.2020 07:00:00 8,1 4,9 - - 9 5 - - E 1025,4 30 0,0
09.04.2020 06:00:00 7,5 3,7 - - 8 4 - - E 1025,3 30 0,0
09.04.2020 05:00:00 6,7 3,0 - - 8 4 - - E 1025,2 30 0,0
09.04.2020 04:00:00 8,2 3,7 - - 9 5 - - NE 1025,2 30 0,0
09.04.2020 03:00:00 7,9 4,3 - - 13 7 - - NE 1025,4 29 0,0
09.04.2020 02:00:00 9,0 5,0 - - 11 6 - - NNE 1025,5 29 0,0
09.04.2020 01:00:00 7,8 3,6 - - 11 6 - - NE 1025,8 30 0,0
09.04.2020 00:00:00 7,3 3,4 - - 5 3 - - E 1025,8 29 0,0
08.04.2020 23:00:00 7,8 3,7 - - 8 4 - - E 1025,8 29 0,0
08.04.2020 22:00:00 9,0 2,8 - - 8 4 - - S 1025,5 28 0,0
08.04.2020 21:00:00 9,8 2,2 - - 4 2 - - SSE 1025,0 30 0,0
08.04.2020 20:00:00 10,3 3,5 - - 5 3 - - SSW 1024,6 30 0,0
08.04.2020 19:00:00 11,4 3,5 - - 8 4 - - SW 1024,5 30 0,0
08.04.2020 18:00:00 12,6 4,3 - - 8 4 - - SW 1024,4 30 0,0
08.04.2020 17:00:00 12,9 4,2 - - 9 5 - - SW 1024,6 30 0,0
08.04.2020 16:00:00 12,0 4,2 - - 11 6 - - S 1024,6 30 0,0
08.04.2020 15:00:00 12,1 4,9 - - 13 7 - - S 1024,8 29 0,0
08.04.2020 14:00:00 12,1 5,6 - - 15 8 - - S 1025,0 25 0,0
08.04.2020 13:00:00 11,9 5,0 - - 9 5 - - S 1025,2 30 0,0
08.04.2020 12:00:00 10,8 5,4 - - 15 8 - - S 1025,5 22 0,0
08.04.2020 11:00:00 11,2 5,9 - - 15 8 - - S 1025,6 24 0,0
08.04.2020 10:00:00 9,6 5,2 9,0 8,2 16 9 - - S 1025,9 26 0,0
08.04.2020 09:00:00 8,9 4,0 - - 15 8 - - S 1025,7 29 0,0
08.04.2020 08:00:00 7,6 3,2 - - 13 7 - - S 1025,5 29 0,0
08.04.2020 07:00:00 6,9 3,2 - - 15 8 - - S 1025,4 28 0,0
08.04.2020 06:00:00 7,3 3,6 - - 13 7 - - S 1025,5 26 0,0
08.04.2020 05:00:00 6,1 2,3 - - 13 7 - - S 1025,7 26 0,0
08.04.2020 04:00:00 6,8 3,0 - - 13 7 - - S 1026,0 25 0,0
08.04.2020 03:00:00 6,4 2,9 - - 16 9 - - S 1026,1 24 0,0
08.04.2020 02:00:00 6,4 2,8 - - 15 8 - - S 1026,4 22 0,0
08.04.2020 01:00:00 6,3 3,2 - - 16 9 - - S 1026,7 22 0,0
08.04.2020 00:00:00 7,0 3,6 - - 15 8 - - S 1026,8 22 0,0
07.04.2020 23:00:00 6,5 3,4 - - 16 9 - - S 1026,8 23 0,0
07.04.2020 22:00:00 7,0 2,9 - - 18 10 - - S 1026,7 25 0,0
07.04.2020 21:00:00 6,7 2,4 - - 15 8 - - S 1026,7 24 0,0
07.04.2020 20:00:00 7,0 1,7 - - 13 7 - - S 1026,4 23 0,0
07.04.2020 19:00:00 9,2 1,7 - - 15 8 - - S 1026,2 26 0,0
07.04.2020 18:00:00 10,6 2,5 - - 15 8 - - S 1026,6 26 0,0
07.04.2020 17:00:00 10,9 2,9 - - 18 10 - - S 1027,1 25 0,0
07.04.2020 16:00:00 11,2 3,8 - - 21 11 - - S 1027,7 24 0,0
07.04.2020 15:00:00 10,3 4,3 - - 22 12 - - S 1028,1 21 0,0
07.04.2020 14:00:00 9,7 4,1 - - 28 15 - - S 1028,5 19 0,0
07.04.2020 13:00:00 10,0 5,4 - - 26 14 - - S 1028,6 19 0,0
07.04.2020 12:00:00 10,0 5,5 - - 26 14 - - S 1028,7 21 0,0
07.04.2020 11:00:00 8,3 5,2 - - 24 13 - - S 1029,1 18 0,0
07.04.2020 10:00:00 7,6 5,0 9,0 8,0 26 14 - - SSE 1029,1 17 0,0
07.04.2020 09:00:00 7,3 5,9 - - 29 16 - - SSE 1028,9 13 0,0
07.04.2020 08:00:00 6,3 5,1 - - 22 12 - - SSE 1028,6 11 0,0
07.04.2020 07:00:00 6,0 5,0 - - 16 9 - - SSE 1028,1 11 0,0
07.04.2020 06:00:00 6,7 6,0 - - 16 9 - - SSE 1027,8 10 0,0
07.04.2020 05:00:00 6,6 6,0 - - 13 7 - - SSE 1027,5 8 0,0
07.04.2020 04:00:00 6,5 5,7 - - 15 8 - - SSE 1027,2 7 0,2
07.04.2020 03:00:00 6,8 6,1 - - 16 9 - - S 1026,9 8 0,0
07.04.2020 02:00:00 7,2 6,6 - - 18 10 - - SSE 1026,3 7 0,0
07.04.2020 01:00:00 7,2 6,7 - - 15 8 - - S 1025,7 5 0,0
07.04.2020 00:00:00 6,7 6,2 - - 18 10 - - SSW 1024,9 5 0,0
06.04.2020 23:00:00 6,8 6,2 - - 16 9 - - SW 1024,2 5 0,0
06.04.2020 22:00:00 6,7 5,9 - - 15 8 - - SSW 1023,5 7 0,0
06.04.2020 21:00:00 6,9 5,7 - - 16 9 - - SSW 1022,7 8 0,0
06.04.2020 20:00:00 7,8 5,8 - - 18 10 - - S 1021,6 12 0,0
06.04.2020 19:00:00 8,0 5,2 - - 22 12 - - SSW 1020,4 13 0,0
06.04.2020 18:00:00 9,0 5,2 - - 24 13 - - SSW 1019,4 15 0,0
06.04.2020 17:00:00 9,8 6,0 - - 24 13 - - SW 1018,5 16 0,0
06.04.2020 16:00:00 9,9 5,6 - - 24 13 - - SW 1017,6 16 0,0
06.04.2020 15:00:00 10,1 6,6 - - 24 13 - - SW 1016,7 14 0,0
06.04.2020 14:00:00 10,0 6,5 - - 22 12 - - SW 1015,6 14 0,0
06.04.2020 13:00:00 10,0 6,4 - - 22 12 - - SW 1014,1 14 0,0
06.04.2020 12:00:00 9,8 6,8 - - 24 13 - - SW 1012,7 14 0,0
06.04.2020 11:00:00 9,5 7,1 - - 24 13 - - SW 1011,4 13 0,0
06.04.2020 10:00:00 8,8 7,0 8,7 7,9 26 14 - - SW 1010,0 13 0,0
06.04.2020 09:00:00 8,2 7,5 - - 24 13 - - SSW 1008,8 5 0,0
06.04.2020 08:00:00 7,7 7,1 - - 31 17 48 26 SSW 1007,1 5 0,0
06.04.2020 07:00:00 7,7 7,0 - - 26 14 - - SSW 1006,1 4,1 0,0
06.04.2020 06:00:00 7,5 6,8 - - 31 17 46 25 SSW 1005,1 5 0,0
06.04.2020 05:00:00 8,3 7,5 - - 34 18 46 25 S 1004,2 7 0,0
06.04.2020 04:00:00 8,4 7,7 - - 31 17 52 28 S 1003,4 8 0,0
06.04.2020 03:00:00 9,1 8,7 - - 41 22 65 35 S 1002,2 12 1,0
06.04.2020 02:00:00 8,7 8,0 - - 31 17 55 30 SSE 1001,6 2,2 1,2
06.04.2020 01:00:00 11,1 7,5 - - 46 25 70 38 S 1001,2 3,0 0,0
06.04.2020 00:00:00 13,6 7,5 - - 55 30 87 47 SSE 1000,6 25 0,0
05.04.2020 23:00:00 14,5 7,0 - - 61 33 81 44 SSE 1000,4 25 0,0
05.04.2020 22:00:00 12,7 7,2 - - 55 30 72 39 SSE 1001,1 19 0,0
05.04.2020 21:00:00 13,5 6,8 - - 46 25 68 37 SSE 1001,4 23 0,0
05.04.2020 20:00:00 16,6 6,4 - - 48 26 67 36 SSE 1001,2 30 0,0
05.04.2020 19:00:00 16,4 5,8 - - 48 26 68 37 SE 1001,2 30 0,0
05.04.2020 18:00:00 16,6 5,5 - - 50 27 78 42 SSE 1001,9 29 0,0
05.04.2020 17:00:00 17,1 5,0 - - 55 30 81 44 SSE 1002,6 28 0,0
05.04.2020 16:00:00 16,8 4,7 - - 57 31 81 44 SSE 1003,5 27 0,0
05.04.2020 15:00:00 16,9 4,3 - - 59 32 83 45 SSE 1004,3 30 0,0
05.04.2020 14:00:00 16,2 3,8 - - 57 31 80 43 SSE 1004,8 35 0,0
05.04.2020 13:00:00 14,1 3,8 - - 54 29 76 41 SE 1006,0 30 0,0
05.04.2020 12:00:00 13,1 4,0 - - 54 29 74 40 SE 1007,2 29 0,0
05.04.2020 11:00:00 12,7 3,5 - - 48 26 65 35 SSE 1008,4 27 0,0
05.04.2020 10:00:00 12,2 4,0 8,2 7,7 42 23 63 34 SE 1008,9 28 0,0
05.04.2020 09:00:00 10,3 3,4 - - 37 20 50 27 SE 1009,9 29 0,0
05.04.2020 08:00:00 8,4 2,5 - - 34 18 46 25 SE 1010,4 28 0,0
05.04.2020 07:00:00 8,0 2,0 - - 34 18 - - SE 1010,9 29 0,0
05.04.2020 06:00:00 8,0 1,7 - - 34 18 - - SE 1011,4 30 0,0
05.04.2020 05:00:00 7,6 1,8 - - 31 17 46 25 SE 1012,0 30 0,0
05.04.2020 04:00:00 7,6 1,6 - - 31 17 46 25 SE 1012,6 30 0,0
05.04.2020 03:00:00 8,7 2,6 - - 37 20 52 28 SSE 1013,4 30 0,0
05.04.2020 02:00:00 8,6 3,2 - - 31 17 46 25 SSE 1014,0 29 0,0
05.04.2020 01:00:00 8,3 4,1 - - 29 16 - - SSE 1014,3 24 0,0
05.04.2020 00:00:00 8,1 4,2 - - 13 7 - - SSE 1014,9 24 0,0
04.04.2020 23:00:00 8,6 5,4 - - 22 12 - - S 1014,8 17 0,0
04.04.2020 22:00:00 8,3 5,9 - - 24 13 - - S 1014,8 12 0,0
04.04.2020 21:00:00 8,3 5,3 - - 28 15 - - S 1014,4 18 0,0
04.04.2020 20:00:00 9,2 5,1 - - 29 16 - - SSE 1014,2 22 0,0
04.04.2020 19:00:00 9,8 5,1 - - 29 16 - - SSE 1014,1 21 0,0

tt = temperature
td = dewpoint
tt -20cm = temperature -20cm
tt -100cm = temperature -100cm
ff = wind speed
fx = gusts
dd = wind direction
ppp = reduced air pressure
vv = visibility
rr = precipitation

Next stations